Location: Pasadena, ca
(34.1243°N, 118.1037°W)
Time: 09:56:27
(UTC-08:00)

ISS - Pass Details

Date: 17 November 2017
Orbit: 402 x 407 km, 51.6° (Epoch: 19 November)

Event Time Altitude Azimuth Distance (km) Brightness Sun altitude
Exits shadow 05:04:32 28° 345° (NNW) 784 -2.7 -17.2°
Maximum altitude 05:05:48 44° 40° (NE) 564 -3.0 -16.9°
Drops below altitude 10° 05:08:55 10° 114° (ESE) 1,445 0.2 -16.3°
Sets 05:11:03 0° 121° (ESE) 2,301 1.4 -15.9°
